CZ-6A DEB, 54350

Orbit data source: Space-Track

CZ-6A DEB, 54350 is space debris in SSO originally from a launch on Fri, 11 Nov 2022 UTC launched from the Taiyaun Space Center, China (TSC). Debris objects in space refer to the collection of defunct objects orbiting the Earth. Examples of debris include non-operational satellites, rocket bodies, and fragments generated from explosions, collisions, or faulty payload assembly.

Loading next visibility...
Identifier
54350, 2022-151CV
Orbit
SSO
Country
Flag of CNCN / PRC
Related business
Manufacturer
SAST
Mission
Spacecraft
Bus & Motor
Unknown
Mass
Unknown
Launch date (UTC)
2022-11-11 (4 years ago)
Launch vehicle
Unknown
Launch site
Taiyaun Space Center, China (TSC)
Object type
Payload
Rocket body
Debris
Shape & HBR
Unknown shape, 0.1 m
Radar Cross Section
Medium (>0.1 m² and <1 m²)

Expand to show TLE details & history
Last TLE update: 2 days ago

TLE from 2 days ago
0 CZ-6A DEB
1 54350U 22151CV  26171.36271991  .00000113  00000-0  54562-4 0  9994
2 54350  98.7019 216.4988 0066759 329.7408  29.9929 14.34865500188099
Epoch: 2026-06-20T08:42Z
TLE epoch observation values (Epoch: 2026-06-20T08:42:19.000Z)
Latitude
0.00001°
Longitude
177.34121°
Altitude
737.159 km
Speed
7.508 km/s
True Right ascension
14h 25m 59s
True Declination
0° 00' 00"
Sunlit
Object was in full shadow at epoch
Visualization orbit readout
Latitude
Unknown
Longitude
Unknown
Altitude
Unknown
Speed
Unknown
Apparent Right ascension
Unknown
Apparent Declination
Unknown
Sunlit
N/A
Visualization observer readout
Local Sidereal Time
21:31:36
Azimuth
Unknown
Elevation
Unknown
Doppler factor
Unknown
Orbital elements
Apogee altitude
820.39 km
Perigee altitude
724.914 km
Semi-major axis
7,150.789 km
Eccentricity
0.00668
Inclination
98.7019°
RAAN
216.4988°
Arg. of periapsis
329.7408°
True anomaly
30.3781°
Mean anomaly
29.9929°
Eccentric anomaly
30.18522°
Mean motion
3.58932 °/min
Orbital period
100.3 mins
BSTAR
0.000054562
Loading maneuver chart data...
Computing Atmospheric mass density...
Loading historical data...
Loading historical data...
Loading historical data...
Loading historical data...
Loading historical data...
Loading historical data...
Loading historical data...

Documentation

Showing up to 5 results
|